Time,TemperatureF,DewpointF,PressureIn,WindDirection,WindDirectionDegrees,WindSpeedMPH,WindSpeedGustMPH,Humidity,HourlyPrecipIn,Conditions,Clouds,dailyrainin,SoftwareType,DateUTC
2013-01-19 00:04:00,19.0,7.0,30.68,West,269,1.0,3.0,59,0.00,,,0.00,,2013-01-19 05:04:00,
2013-01-19 00:12:00,19.0,7.0,30.68,West,269,1.0,3.0,59,0.00,,,0.00,,2013-01-19 05:12:00,
2013-01-19 00:23:00,20.0,8.0,30.67,WSW,245,1.0,5.0,58,0.00,,,0.00,,2013-01-19 05:23:00,
2013-01-19 00:33:00,20.0,7.0,30.66,SSW,210,0.0,2.0,57,0.00,,,0.00,,2013-01-19 05:33:00,
2013-01-19 00:43:00,20.0,7.0,30.66,SSW,210,0.0,2.0,57,0.00,,,0.00,,2013-01-19 05:43:00,
2013-01-19 00:53:00,21.0,8.0,30.66,West,273,1.0,3.0,56,0.00,,,0.00,,2013-01-19 05:53:00,
2013-01-19 01:03:00,22.0,10.0,30.65,SW,224,1.0,3.0,58,0.00,,,0.00,,2013-01-19 06:03:00,
2013-01-19 01:12:00,22.0,10.0,30.65,SW,224,1.0,3.0,58,0.00,,,0.00,,2013-01-19 06:12:00,
2013-01-19 01:23:00,22.0,10.0,30.64,SE,125,1.0,3.0,58,0.00,,,0.00,,2013-01-19 06:23:00,
2013-01-19 01:33:00,22.0,10.0,30.63,West,259,1.0,6.0,58,0.00,,,0.00,,2013-01-19 06:33:00,
2013-01-19 01:43:00,22.0,10.0,30.63,West,259,1.0,6.0,58,0.00,,,0.00,,2013-01-19 06:43:00,
2013-01-19 01:53:00,23.0,10.0,30.63,SW,232,1.0,3.0,57,0.00,,,0.00,,2013-01-19 06:53:00,
2013-01-19 02:02:00,23.0,10.0,30.63,NW,322,0.0,2.0,57,0.00,,,0.00,,2013-01-19 07:02:00,
2013-01-19 02:12:00,23.0,10.0,30.63,NW,322,0.0,2.0,57,0.00,,,0.00,,2013-01-19 07:12:00,
2013-01-19 02:23:00,23.0,10.0,30.62,ESE,122,2.0,5.0,58,0.00,,,0.00,,2013-01-19 07:23:00,
2013-01-19 02:33:00,24.0,11.0,30.62,WSW,258,1.0,6.0,57,0.00,,,0.00,,2013-01-19 07:33:00,
2013-01-19 02:43:00,24.0,11.0,30.62,WSW,258,1.0,6.0,57,0.00,,,0.00,,2013-01-19 07:43:00,
2013-01-19 02:53:00,24.0,11.0,30.60,South,173,0.0,5.0,57,0.00,,,0.00,,2013-01-19 07:53:00,
2013-01-19 03:02:00,24.0,11.0,30.60,SW,231,1.0,2.0,57,0.00,,,0.00,,2013-01-19 08:02:00,
2013-01-19 03:12:00,24.0,11.0,30.60,SW,231,1.0,2.0,57,0.00,,,0.00,,2013-01-19 08:12:00,
2013-01-19 03:22:00,24.0,11.0,30.58,West,274,2.0,5.0,58,0.00,,,0.00,,2013-01-19 08:22:00,
2013-01-19 03:32:00,24.0,11.0,30.58,West,273,1.0,3.0,58,0.00,,,0.00,,2013-01-19 08:32:00,
2013-01-19 03:43:00,24.0,11.0,30.58,West,273,1.0,3.0,58,0.00,,,0.00,,2013-01-19 08:43:00,
2013-01-19 03:53:00,25.0,13.0,30.57,WSW,247,0.0,5.0,59,0.00,,,0.00,,2013-01-19 08:53:00,
2013-01-19 04:02:00,25.0,13.0,30.56,WSW,255,2.0,3.0,60,0.00,,,0.00,,2013-01-19 09:02:00,
2013-01-19 04:12:00,25.0,13.0,30.56,WSW,255,2.0,3.0,60,0.00,,,0.00,,2013-01-19 09:12:00,
2013-01-19 04:23:00,25.0,13.0,30.55,ENE,64,1.0,5.0,60,0.00,,,0.00,,2013-01-19 09:23:00,
2013-01-19 04:33:00,25.0,13.0,30.55,ENE,61,1.0,5.0,61,0.00,,,0.00,,2013-01-19 09:33:00,
2013-01-19 04:42:00,25.0,13.0,30.55,ENE,61,1.0,5.0,61,0.00,,,0.00,,2013-01-19 09:42:00,
2013-01-19 04:53:00,25.0,14.0,30.54,WSW,243,2.0,5.0,62,0.00,,,0.00,,2013-01-19 09:53:00,
2013-01-19 05:02:00,26.0,15.0,30.53,East,84,1.0,3.0,63,0.00,,,0.00,,2013-01-19 10:02:00,
2013-01-19 05:12:00,26.0,15.0,30.53,East,84,1.0,3.0,63,0.00,,,0.00,,2013-01-19 10:12:00,
2013-01-19 05:23:00,26.0,16.0,30.52,West,260,1.0,3.0,64,0.00,,,0.00,,2013-01-19 10:23:00,
2013-01-19 05:32:00,26.0,16.0,30.51,SW,235,1.0,5.0,65,0.00,,,0.00,,2013-01-19 10:32:00,
2013-01-19 05:43:00,26.0,16.0,30.51,SW,235,1.0,5.0,65,0.00,,,0.00,,2013-01-19 10:43:00,
2013-01-19 05:53:00,26.0,16.0,30.51,WSW,253,0.0,3.0,64,0.00,,,0.00,,2013-01-19 10:53:00,
2013-01-19 06:03:00,26.0,16.0,30.52,WSW,257,0.0,1.0,65,0.00,,,0.00,,2013-01-19 11:03:00,
2013-01-19 06:12:00,26.0,16.0,30.52,WSW,257,0.0,1.0,65,0.00,,,0.00,,2013-01-19 11:12:00,
2013-01-19 07:48:00,30.0,20.0,30.47,WSW,238,2.0,8.0,65,0.00,,,0.00,,2013-01-19 12:48:00,
2013-01-19 07:53:00,30.0,20.0,30.46,NW,325,1.0,3.0,66,0.00,,,0.00,,2013-01-19 12:53:00,
2013-01-19 08:03:00,30.0,20.0,30.46,West,262,1.0,3.0,66,0.00,,,0.00,,2013-01-19 13:03:00,
2013-01-19 08:13:00,30.0,20.0,30.46,West,262,1.0,3.0,66,0.00,,,0.00,,2013-01-19 13:13:00,
2013-01-19 08:22:00,31.0,21.0,30.46,SSW,194,2.0,12.0,65,0.00,,,0.00,,2013-01-19 13:22:00,
2013-01-19 08:33:00,31.0,21.0,30.45,West,278,2.0,13.0,65,0.00,,,0.00,,2013-01-19 13:33:00,
2013-01-19 08:43:00,31.0,21.0,30.45,West,278,2.0,13.0,65,0.00,,,0.00,,2013-01-19 13:43:00,
2013-01-19 08:54:00,32.0,21.0,30.45,SW,229,2.0,7.0,64,0.00,,,0.00,,2013-01-19 13:54:00,
2013-01-19 09:03:00,33.0,23.0,30.45,ESE,120,2.0,7.0,65,0.00,,,0.00,,2013-01-19 14:03:00,
2013-01-19 09:12:00,33.0,23.0,30.45,ESE,120,2.0,7.0,65,0.00,,,0.00,,2013-01-19 14:12:00,
2013-01-19 09:23:00,33.0,22.0,30.45,WSW,240,2.0,9.0,64,0.00,,,0.00,,2013-01-19 14:23:00,
2013-01-19 09:34:00,34.0,23.0,30.45,South,191,2.0,6.0,63,0.00,,,0.00,,2013-01-19 14:34:00,
2013-01-19 09:43:00,34.0,23.0,30.45,South,191,2.0,6.0,63,0.00,,,0.00,,2013-01-19 14:43:00,
2013-01-19 09:54:00,35.0,23.0,30.44,WSW,250,2.0,6.0,62,0.00,,,0.00,,2013-01-19 14:54:00,
2013-01-19 10:03:00,35.0,24.0,30.44,West,259,1.0,6.0,63,0.00,,,0.00,,2013-01-19 15:03:00,
2013-01-19 10:13:00,35.0,24.0,30.44,West,259,1.0,6.0,63,0.00,,,0.00,,2013-01-19 15:13:00,
2013-01-19 10:23:00,36.0,24.0,30.44,West,260,2.0,10.0,62,0.00,,,0.00,,2013-01-19 15:23:00,
2013-01-19 10:33:00,37.0,25.0,30.43,WSW,253,2.0,6.0,61,0.00,,,0.00,,2013-01-19 15:33:00,
2013-01-19 10:43:00,37.0,25.0,30.43,WSW,253,2.0,6.0,61,0.00,,,0.00,,2013-01-19 15:43:00,
2013-01-19 10:53:00,38.0,25.0,30.41,West,267,1.0,9.0,59,0.00,,,0.00,,2013-01-19 15:53:00,
2013-01-19 11:03:00,38.0,25.0,30.41,NNW,345,2.0,5.0,59,0.00,,,0.00,,2013-01-19 16:03:00,
2013-01-19 11:13:00,38.0,25.0,30.41,NNW,345,2.0,5.0,59,0.00,,,0.00,,2013-01-19 16:13:00,
2013-01-19 11:23:00,39.0,25.0,30.39,WSW,238,2.0,8.0,58,0.00,,,0.00,,2013-01-19 16:23:00,
2013-01-19 11:33:00,40.0,26.0,30.37,West,274,3.0,7.0,57,0.00,,,0.00,,2013-01-19 16:33:00,
2013-01-19 11:43:00,40.0,26.0,30.37,West,274,3.0,7.0,57,0.00,,,0.00,,2013-01-19 16:43:00,
2013-01-19 11:54:00,41.0,27.0,30.35,West,260,1.0,9.0,56,0.01,,,0.01,,2013-01-19 16:54:00,
2013-01-19 12:03:00,41.0,27.0,30.35,West,260,1.0,9.0,56,0.01,,,0.01,,2013-01-19 17:03:00,
2013-01-19 12:21:00,41.0,27.0,30.35,West,260,1.0,9.0,56,0.01,,,0.01,,2013-01-19 17:21:00,
2013-01-19 12:29:00,42.0,26.0,30.33,ENE,72,2.0,10.0,53,0.01,,,0.01,,2013-01-19 17:29:00,
2013-01-19 12:35:00,42.0,26.0,30.32,West,278,2.0,7.0,52,0.01,,,0.01,,2013-01-19 17:35:00,
2013-01-19 12:50:00,42.0,26.0,30.32,West,278,2.0,7.0,52,0.01,,,0.01,,2013-01-19 17:50:00,
2013-01-19 12:55:00,43.0,26.0,30.31,WSW,248,2.0,8.0,50,0.01,,,0.02,,2013-01-19 17:55:00,
2013-01-19 13:12:00,43.0,26.0,30.30,SW,235,2.0,7.0,50,0.01,,,0.02,,2013-01-19 18:12:00,
2013-01-19 13:28:00,44.0,27.0,30.29,West,274,3.0,7.0,50,0.02,,,0.03,,2013-01-19 18:28:00,
2013-01-19 13:35:00,44.0,26.0,30.29,West,278,3.0,6.0,49,0.02,,,0.03,,2013-01-19 18:35:00,
2013-01-19 13:45:00,44.0,26.0,30.29,West,278,3.0,6.0,49,0.02,,,0.03,,2013-01-19 18:45:00,
2013-01-19 14:02:00,44.0,26.0,30.28,NW,307,2.0,7.0,49,0.02,,,0.04,,2013-01-19 19:02:00,
2013-01-19 14:09:00,44.0,26.0,30.27,South,188,4.0,9.0,48,0.02,,,0.04,,2013-01-19 19:09:00,
2013-01-19 14:21:00,44.0,26.0,30.27,South,188,4.0,9.0,48,0.02,,,0.04,,2013-01-19 19:21:00,
2013-01-19 14:30:00,44.0,26.0,30.27,WNW,287,3.0,7.0,49,0.01,,,0.04,,2013-01-19 19:30:00,
2013-01-19 14:39:00,45.0,27.0,30.27,West,263,2.0,7.0,48,0.01,,,0.04,,2013-01-19 19:39:00,
2013-01-19 14:47:00,45.0,27.0,30.27,West,263,2.0,7.0,48,0.01,,,0.04,,2013-01-19 19:47:00,
2013-01-19 14:59:00,45.0,27.0,30.26,East,84,1.0,5.0,48,0.00,,,0.04,,2013-01-19 19:59:00,
2013-01-19 15:10:00,45.0,27.0,30.26,West,270,2.0,6.0,48,0.00,,,0.04,,2013-01-19 20:10:00,
2013-01-19 15:20:00,45.0,27.0,30.26,West,270,2.0,6.0,48,0.00,,,0.04,,2013-01-19 20:20:00,
2013-01-19 15:26:00,45.0,26.0,30.26,West,274,1.0,8.0,47,0.00,,,0.04,,2013-01-19 20:26:00,
2013-01-19 15:38:00,45.0,27.0,30.26,NE,53,1.0,3.0,48,0.00,,,0.04,,2013-01-19 20:38:00,
2013-01-19 15:49:00,45.0,27.0,30.26,NE,53,1.0,3.0,48,0.00,,,0.04,,2013-01-19 20:49:00,
2013-01-19 15:59:00,45.0,27.0,30.26,West,270,1.0,5.0,48,0.00,,,0.04,,2013-01-19 20:59:00,
2013-01-19 16:15:00,44.0,26.0,30.25,West,259,3.0,6.0,48,0.00,,,0.04,,2013-01-19 21:15:00,
2013-01-19 16:28:00,44.0,26.0,30.25,WSW,245,1.0,3.0,49,0.00,,,0.04,,2013-01-19 21:28:00,
2013-01-19 16:45:00,44.0,27.0,30.25,West,275,1.0,3.0,50,0.00,,,0.04,,2013-01-19 21:45:00,
2013-01-19 17:15:00,43.0,27.0,30.26,WSW,238,1.0,7.0,52,0.00,,,0.04,,2013-01-19 22:15:00,
2013-01-19 17:28:00,43.0,27.0,30.26,West,271,1.0,2.0,53,0.00,,,0.04,,2013-01-19 22:28:00,
2013-01-19 17:35:00,42.0,27.0,30.26,WSW,252,0.0,3.0,54,0.00,,,0.04,,2013-01-19 22:35:00,
2013-01-19 17:48:00,42.0,27.0,30.26,WSW,252,0.0,3.0,54,0.00,,,0.04,,2013-01-19 22:48:00,
2013-01-19 17:58:00,42.0,27.0,30.27,WSW,253,0.0,2.0,55,0.00,,,0.04,,2013-01-19 22:58:00,
2013-01-19 18:13:00,41.0,27.0,30.27,ENE,58,0.0,1.0,56,0.00,,,0.04,,2013-01-19 23:13:00,
2013-01-19 18:27:00,41.0,27.0,30.27,West,269,0.0,2.0,57,0.00,,,0.04,,2013-01-19 23:27:00,
2013-01-19 18:34:00,41.0,27.0,30.27,West,260,0.0,3.0,57,0.00,,,0.04,,2013-01-19 23:34:00,
2013-01-19 19:08:00,41.0,27.0,30.27,ESE,102,0.0,2.0,57,0.00,,,0.04,,2013-01-20 00:08:00,
2013-01-19 19:15:00,40.0,27.0,30.27,West,262,0.0,1.0,59,0.00,,,0.04,,2013-01-20 00:15:00,
2013-01-19 19:26:00,39.0,26.0,30.27,West,262,0.0,2.0,60,0.00,,,0.04,,2013-01-20 00:26:00,
2013-01-19 19:35:00,39.0,27.0,30.27,West,262,0.0,1.0,61,0.00,,,0.04,,2013-01-20 00:35:00,
2013-01-19 19:46:00,39.0,27.0,30.27,West,262,0.0,1.0,61,0.00,,,0.04,,2013-01-20 00:46:00,
2013-01-19 19:58:00,38.0,27.0,30.26,West,262,0.0,1.0,63,0.00,,,0.04,,2013-01-20 00:58:00,
2013-01-19 20:04:00,38.0,27.0,30.26,West,262,0.0,1.0,65,0.00,,,0.04,,2013-01-20 01:04:00,
2013-01-19 20:21:00,38.0,27.0,30.26,West,262,0.0,1.0,65,0.00,,,0.04,,2013-01-20 01:21:00,
2013-01-19 20:27:00,37.0,27.0,30.26,West,262,0.0,1.0,67,0.00,,,0.04,,2013-01-20 01:27:00,
2013-01-19 20:37:00,37.0,27.0,30.25,West,262,0.0,1.0,67,0.00,,,0.04,,2013-01-20 01:37:00,
2013-01-19 20:49:00,37.0,27.0,30.25,West,262,0.0,1.0,67,0.00,,,0.04,,2013-01-20 01:49:00,
2013-01-19 21:04:00,36.0,26.0,30.25,West,262,0.0,0.0,68,0.00,,,0.04,,2013-01-20 02:04:00,
2013-01-19 21:15:00,36.0,26.0,30.25,West,262,0.0,1.0,68,0.00,,,0.04,,2013-01-20 02:15:00,
2013-01-19 21:27:00,36.0,27.0,30.24,West,262,0.0,1.0,69,0.00,,,0.04,,2013-01-20 02:27:00,
2013-01-19 21:36:00,36.0,27.0,30.24,West,262,0.0,0.0,70,0.00,,,0.04,,2013-01-20 02:36:00,
2013-01-19 21:45:00,36.0,27.0,30.24,West,262,0.0,0.0,70,0.00,,,0.04,,2013-01-20 02:45:00,
2013-01-19 21:59:00,36.0,27.0,30.22,West,264,0.0,1.0,69,0.00,,,0.04,,2013-01-20 02:59:00,
2013-01-19 22:08:00,36.0,27.0,30.22,West,264,0.0,1.0,70,0.00,,,0.04,,2013-01-20 03:08:00,
2013-01-19 22:15:00,36.0,27.0,30.22,West,264,0.0,1.0,70,0.00,,,0.04,,2013-01-20 03:15:00,
2013-01-19 22:25:00,36.0,28.0,30.22,WNW,284,0.0,1.0,72,0.00,,,0.04,,2013-01-20 03:25:00,
2013-01-19 22:38:00,37.0,28.0,30.21,NW,322,0.0,3.0,71,0.00,,,0.04,,2013-01-20 03:38:00,
2013-01-19 22:45:00,37.0,28.0,30.21,NW,322,0.0,3.0,71,0.00,,,0.04,,2013-01-20 03:45:00,
2013-01-19 22:58:00,37.0,29.0,30.19,NW,322,0.0,2.0,73,0.00,,,0.04,,2013-01-20 03:58:00,
2013-01-19 23:05:00,37.0,29.0,30.19,NNW,347,0.0,1.0,74,0.00,,,0.04,,2013-01-20 04:05:00,
2013-01-19 23:15:00,37.0,29.0,30.19,NNW,347,0.0,1.0,74,0.00,,,0.04,,2013-01-20 04:15:00,
2013-01-19 23:27:00,38.0,31.0,30.18,ESE,107,0.0,2.0,75,0.00,,,0.04,,2013-01-20 04:27:00,
2013-01-19 23:36:00,38.0,31.0,30.17,WSW,246,0.0,3.0,76,0.00,,,0.04,,2013-01-20 04:36:00,
2013-01-19 23:45:00,38.0,31.0,30.17,WSW,246,0.0,3.0,76,0.00,,,0.04,,2013-01-20 04:45:00,
2013-01-19 23:58:00,38.0,31.0,30.16,WSW,240,0.0,2.0,76,0.00,,,0.04,,2013-01-20 04:58:00,